CW6391 Weather Reports


Display with metric or nautical units.
time (UTC)temp
F
wind
direction
speed
MPH
gust
MPH
rain 1hr
in
rain 24hr
in
rain mn
in
humidity
%
barometer
mb
20260508215201 48 332 0.0 2.0 0.00 0.00 0.00 80 1018.1
20260508214704 48 314 1.0 2.0 0.00 0.00 0.00 80 1018.1
20260508214158 48 269 0.0 2.0 0.00 0.00 0.00 80 1018.1
20260508213707 49 300 0.0 2.0 0.00 0.00 0.00 79 1018.1
20260508213201 49 298 0.0 2.0 0.00 0.00 0.00 79 1018.1
20260508212704 49 291 0.0 1.0 0.00 0.00 0.00 78 1018.1
20260508212201 49 305 0.0 2.0 0.00 0.00 0.00 78 1018.1
20260508211658 49 286 1.0 2.0 0.00 0.00 0.00 77 1018.1
20260508211201 49 293 1.0 3.0 0.00 0.00 0.00 77 1018.1
20260508210658 50 304 1.0 3.0 0.00 0.00 0.00 76 1018.1
20260508210158 50 318 1.0 3.0 0.00 0.00 0.00 76 1018.1
20260508205658 50 315 1.0 2.0 0.00 0.00 0.00 75 1018.1
20260508205204 50 310 1.0 2.0 0.00 0.00 0.00 75 1018.1
20260508204704 50 323 1.0 3.0 0.00 0.00 0.00 75 1018.1
20260508204204 50 318 0.0 2.0 0.00 0.00 0.00 75 1018.1
20260508203701 51 297 0.0 2.0 0.00 0.00 0.00 74 1018.1
20260508203158 51 233 0.0 4.0 0.00 0.00 0.00 74 1018.1
20260508202701 51 338 1.0 6.0 0.00 0.00 0.00 74 1018.1
20260508202158 51 0 2.0 6.0 0.00 0.00 0.00 73 1018.1
20260508201658 51 10 2.0 5.0 0.00 0.00 0.00 73 1017.7
20260508201158 51 14 2.0 6.0 0.00 0.00 0.00 73 1017.7
20260508200658 51 3 3.0 5.0 0.00 0.00 0.00 73 1017.7
20260508200204 51 13 2.0 8.0 0.00 0.00 0.00 72 1017.7
20260508195658 52 11 3.0 10.0 0.00 0.00 0.00 72 1017.7
20260508195201 52 14 3.0 7.0 0.00 0.00 0.00 72 1017.7
20260508194658 52 0 4.0 7.0 0.00 0.00 0.00 71 1017.7
20260508194158 52 32 2.0 6.0 0.00 0.00 0.00 71 1017.7
20260508193704 52 11 3.0 6.0 0.00 0.00 0.00 71 1017.7
20260508193201 52 16 3.0 6.0 0.00 0.00 0.00 70 1017.7
20260508192701 53 17 2.0 8.0 0.00 0.00 0.00 70 1017.7
20260508192201 53 353 1.0 8.0 0.00 0.00 0.00 69 1017.7
20260508191658 53 338 3.0 10.0 0.00 0.00 0.00 69 1017.7
20260508191204 53 351 4.0 10.0 0.00 0.00 0.00 68 1017.7
20260508190658 53 341 4.0 9.0 0.00 0.00 0.00 68 1017.4
20260508190201 53 353 4.0 10.0 0.00 0.00 0.00 67 1017.4
20260508185658 54 11 2.0 10.0 0.00 0.00 0.00 67 1017.4
20260508185201 54 345 3.0 8.0 0.00 0.00 0.00 66 1017.1
20260508184658 54 353 4.0 9.0 0.00 0.00 0.00 66 1017.1
20260508184158 54 352 5.0 10.0 0.00 0.00 0.00 65 1017.1
20260508183658 55 359 4.0 9.0 0.00 0.00 0.00 64 1017.1
20260508183158 55 342 4.0 9.0 0.00 0.00 0.00 63 1017.1
20260508182704 55 347 3.0 9.0 0.00 0.00 0.00 63 1017.1
20260508182158 56 334 2.0 6.0 0.00 0.00 0.00 62 1016.7
20260508181658 56 340 2.0 8.0 0.00 0.00 0.00 62 1016.7
20260508181158 56 339 5.0 11.0 0.00 0.00 0.00 61 1016.7
20260508180658 56 10 2.0 8.0 0.00 0.00 0.00 61 1016.7
20260508180158 56 339 4.0 9.0 0.00 0.00 0.00 60 1016.7
20260508175701 57 14 2.0 8.0 0.00 0.00 0.00 60 1016.7
20260508175158 57 6 2.0 9.0 0.00 0.00 0.00 59 1016.7
20260508174701 57 354 4.0 10.0 0.00 0.00 0.00 59 1016.7
20260508174158 57 22 3.0 11.0 0.00 0.00 0.00 58 1016.7
20260508173704 58 355 1.0 9.0 0.00 0.00 0.00 58 1016.3
20260508173158 58 7 2.0 7.0 0.00 0.00 0.00 58 1016.3
20260508172701 58 4 3.0 8.0 0.00 0.00 0.00 58 1016.3
20260508172158 58 9 4.0 7.0 0.00 0.00 0.00 58 1016.3
20260508171701 58 0 4.0 8.0 0.00 0.00 0.00 57 1016.3
20260508171201 58 330 2.0 7.0 0.00 0.00 0.00 56 1016.3
20260508170658 58 23 2.0 7.0 0.00 0.00 0.00 55 1016.3
20260508170201 59 6 3.0 6.0 0.00 0.00 0.00 54 1016.3
20260508165701 58 341 2.0 7.0 0.00 0.00 0.00 54 1016.3
20260508165201 59 338 3.0 7.0 0.00 0.00 0.00 53 1016.3
20260508164702 59 347 4.0 7.0 0.00 0.00 0.00 54 1016.3
20260508164158 59 346 3.0 7.0 0.00 0.00 0.00 53 1016.3
20260508163701 59 335 1.0 5.0 0.00 0.00 0.00 54 1016.3
20260508163207 59 333 2.0 6.0 0.00 0.00 0.00 53 1016.3
20260508162658 59 344 3.0 6.0 0.00 0.00 0.00 52 1016.3
20260508162204 59 343 3.0 6.0 0.00 0.00 0.00 53 1016.3
20260508161658 59 7 2.0 7.0 0.00 0.00 0.00 53 1016.3
20260508161158 60 323 3.0 8.0 0.00 0.00 0.00 52 1016.3
20260508160658 60 327 1.0 8.0 0.00 0.00 0.00 52 1016.3
20260508160158 60 3 2.0 7.0 0.00 0.00 0.00 50 1016.0
20260508155707 60 345 3.0 6.0 0.00 0.00 0.00 49 1016.0
20260508155201 60 12 2.0 6.0 0.00 0.00 0.00 49 1016.0
20260508154658 62 313 1.0 5.0 0.00 0.00 0.00 49 1016.0
20260508154158 61 9 1.0 5.0 0.00 0.00 0.00 49 1016.3
20260508153658 61 347 2.0 5.0 0.00 0.00 0.00 50 1016.3
20260508153158 60 13 1.0 7.0 0.00 0.00 0.00 52 1016.3
20260508152658 59 324 1.0 7.0 0.00 0.00 0.00 53 1016.3
20260508152201 60 335 2.0 5.0 0.00 0.00 0.00 51 1016.3
20260508151658 60 8 2.0 7.0 0.00 0.00 0.00 50 1016.3
20260508151158 62 58 4.0 7.0 0.00 0.00 0.00 48 1016.3
20260508150702 61 315 2.0 7.0 0.00 0.00 0.00 51 1016.3
20260508150158 61 341 2.0 8.0 0.00 0.00 0.00 49 1016.3
20260508145658 60 348 3.0 8.0 0.00 0.00 0.00 50 1016.3
20260508145201 61 350 4.0 8.0 0.00 0.00 0.00 50 1016.3
20260508144658 60 335 1.0 6.0 0.00 0.00 0.00 51 1016.3
20260508144204 60 7 3.0 6.0 0.00 0.00 0.00 50 1016.3
20260508143658 62 340 1.0 4.0 0.00 0.00 0.00 50 1016.7
20260508143158 62 120 2.0 8.0 0.00 0.00 0.00 50 1016.7
20260508142658 62 130 3.0 5.0 0.00 0.00 0.00 50 1016.7
20260508142204 60 236 1.0 6.0 0.00 0.00 0.00 53 1016.7
20260508141658 59 0 1.0 8.0 0.00 0.00 0.00 51 1016.7
20260508141158 60 13 3.0 6.0 0.00 0.00 0.00 51 1016.7
20260508140658 59 347 1.0 7.0 0.00 0.00 0.00 54 1016.7
20260508140204 59 354 2.0 7.0 0.00 0.00 0.00 54 1016.7
20260508135658 59 342 3.0 6.0 0.00 0.00 0.00 52 1016.7
20260508135158 59 351 2.0 7.0 0.00 0.00 0.00 53 1016.7
20260508134658 60 318 2.0 9.0 0.00 0.00 0.00 52 1016.7
20260508134158 60 341 1.0 7.0 0.00 0.00 0.00 55 1016.7
20260508133658 59 12 3.0 7.0 0.00 0.00 0.00 54 1016.7
20260508133158 58 358 2.0 9.0 0.00 0.00 0.00 56 1016.7
20260508132701 59 7 2.0 7.0 0.00 0.00 0.00 53 1016.7
20260508132158 59 1 4.0 10.0 0.00 0.00 0.00 52 1016.7
20260508131658 60 31 1.0 6.0 0.00 0.00 0.00 53 1016.7
20260508131158 59 352 2.0 10.0 0.00 0.00 0.00 50 1017.1
20260508130701 59 37 3.0 9.0 0.00 0.00 0.00 50 1017.1
20260508130158 62 350 4.0 9.0 0.00 0.00 0.00 45 1017.1
20260508125658 65 351 2.0 5.0 0.00 0.00 0.00 41 1017.1
20260508125158 65 250 2.0 4.0 0.00 0.00 0.00 41 1017.1
20260508124701 64 260 1.0 4.0 0.00 0.00 0.00 45 1017.1
20260508124201 62 253 1.0 4.0 0.00 0.00 0.00 47 1017.1
20260508123704 60 331 1.0 4.0 0.00 0.00 0.00 48 1017.1
20260508123201 60 350 2.0 7.0 0.00 0.00 0.00 46 1017.1
20260508122658 61 264 1.0 6.0 0.00 0.00 0.00 47 1017.1
20260508122158 61 337 2.0 7.0 0.00 0.00 0.00 46 1017.1
20260508121658 62 338 1.0 7.0 0.00 0.00 0.00 45 1017.1
20260508121205 62 273 2.0 7.0 0.00 0.00 0.00 47 1017.1
20260508120658 61 331 2.0 8.0 0.00 0.00 0.00 46 1017.1
20260508120202 62 344 2.0 6.0 0.00 0.00 0.00 45 1017.1
20260508115659 62 271 2.0 8.0 0.00 0.00 0.00 46 1017.1
20260508115158 62 16 1.0 7.0 0.00 0.00 0.00 48 1017.1
20260508114701 64 300 2.0 5.0 0.00 0.00 0.00 44 1017.1
20260508114202 64 216 1.0 6.0 0.00 0.00 0.00 47 1017.1
20260508113701 62 306 3.0 8.0 0.00 0.00 0.00 48 1017.1
20260508113201 62 252 3.0 8.0 0.00 0.00 0.00 46 1017.1
20260508112701 62 330 2.0 5.0 0.00 0.00 0.00 45 1017.1
20260508112159 61 314 2.0 6.0 0.00 0.00 0.00 47 1017.1
20260508111658 61 327 2.0 6.0 0.00 0.00 0.00 49 1017.1
20260508111158 61 49 2.0 7.0 0.00 0.00 0.00 48 1017.1
20260508110658 61 209 0.0 4.0 0.00 0.00 0.00 51 1017.1
20260508110158 60 332 2.0 5.0 0.00 0.00 0.00 50 1017.4
20260508105701 60 252 1.0 7.0 0.00 0.00 0.00 52 1017.1
20260508105201 59 290 1.0 7.0 0.00 0.00 0.00 54 1017.1
20260508104707 59 307 2.0 7.0 0.00 0.00 0.00 54 1017.1
20260508104158 59 301 2.0 7.0 0.00 0.00 0.00 53 1017.1
20260508103704 59 282 1.0 4.0 0.00 0.00 0.00 55 1017.1
20260508103201 58 329 2.0 4.0 0.00 0.00 0.00 53 1017.4
20260508102658 58 306 1.0 7.0 0.00 0.00 0.00 56 1017.4
20260508102158 59 250 2.0 5.0 0.00 0.00 0.00 55 1017.1
20260508101658 58 312 1.0 9.0 0.00 0.00 0.00 59 1017.1
20260508101201 56 322 3.0 7.0 0.00 0.00 0.00 60 1017.4
20260508100658 56 325 2.0 6.0 0.00 0.00 0.00 61 1017.4
20260508100204 56 317 3.0 9.0 0.00 0.00 0.00 61 1017.4
20260508095658 56 319 5.0 9.0 0.00 0.00 0.00 59 1017.4
20260508095204 57 326 3.0 6.0 0.00 0.00 0.00 57 1017.4
20260508094701 58 247 1.0 5.0 0.00 0.00 0.00 54 1017.4
20260508094158 56 33 1.0 5.0 0.00 0.00 0.00 55 1017.4
20260508093704 58 152 0.0 4.0 0.00 0.00 0.00 55 1017.4
20260508093207 56 173 2.0 4.0 0.00 0.00 0.00 57 1017.4
20260508092658 54 346 1.0 3.0 0.00 0.00 0.00 59 1017.4
20260508092201 55 20 1.0 4.0 0.00 0.00 0.00 60 1017.7
20260508091701 55 248 1.0 5.0 0.00 0.00 0.00 61 1017.7
20260508091158 55 49 1.0 5.0 0.00 0.00 0.00 64 1017.7
20260508090704 55 7 2.0 5.0 0.00 0.00 0.00 62 1017.7
20260508090201 55 320 1.0 3.0 0.00 0.00 0.00 62 1017.7
20260508085701 55 301 1.0 3.0 0.00 0.00 0.00 64 1017.7
20260508085204 55 245 1.0 3.0 0.00 0.00 0.00 68 1017.7
20260508084701 53 298 1.0 3.0 0.00 0.01 0.00 71 1017.7
20260508084204 53 323 1.0 3.0 0.00 0.01 0.00 71 1017.7
20260508083704 52 310 0.0 3.0 0.00 0.01 0.00 74 1017.7
20260508083158 51 14 0.0 3.0 0.00 0.01 0.00 74 1017.7
20260508082658 52 344 0.0 2.0 0.00 0.01 0.00 73 1017.7
20260508082158 51 319 0.0 3.0 0.00 0.01 0.00 75 1017.7
20260508081701 51 330 2.0 3.0 0.00 0.01 0.00 73 1017.7
20260508081158 51 230 2.0 3.0 0.00 0.01 0.00 75 1017.7
20260508080701 51 262 0.0 3.0 0.00 0.01 0.00 76 1017.7
20260508080158 51 297 0.0 3.0 0.00 0.01 0.00 77 1017.7
20260508075704 51 314 1.0 3.0 0.00 0.01 0.00 77 1017.7
20260508075158 50 288 0.0 4.0 0.00 0.01 0.00 79 1017.7
20260508074658 50 345 1.0 5.0 0.00 0.01 0.00 78 1017.7
20260508074201 50 284 0.0 3.0 0.00 0.01 0.00 78 1017.7
20260508073658 50 316 1.0 4.0 0.00 0.01 0.00 78 1017.4
20260508073158 50 328 1.0 3.0 0.00 0.01 0.00 77 1017.4
20260508072702 50 326 1.0 3.0 0.00 0.01 0.00 77 1017.4
20260508072158 49 323 1.0 4.0 0.00 0.01 0.00 78 1017.4
20260508071658 49 310 1.0 5.0 0.00 0.01 0.00 78 1017.4
20260508071201 49 316 1.0 5.0 0.00 0.01 0.00 78 1017.4
20260508070658 49 334 1.0 4.0 0.00 0.01 0.00 77 1017.4
20260508070158 50 282 1.0 4.0 0.00 0.01 0.00 77 1017.1
20260508065704 50 296 1.0 5.0 0.00 0.01 0.00 77 1017.1
20260508065207 50 274 0.0 3.0 0.00 0.01 0.00 79 1017.1
20260508064701 49 331 0.0 4.0 0.00 0.01 0.00 79 1017.1
20260508064201 49 253 1.0 4.0 0.00 0.01 0.00 80 1017.1
20260508063701 49 309 1.0 4.0 0.00 0.01 0.00 80 1016.7
20260508063158 49 330 2.0 4.0 0.00 0.01 0.00 79 1016.7
20260508062658 49 304 2.0 5.0 0.00 0.01 0.00 80 1016.7
20260508062158 49 281 1.0 3.0 0.00 0.01 0.00 81 1016.7
20260508061701 49 317 1.0 3.0 0.00 0.01 0.00 80 1016.7
20260508061201 49 330 1.0 3.0 0.00 0.01 0.00 81 1016.7
20260508060702 49 303 1.0 4.0 0.00 0.01 0.00 81 1016.7
20260508060207 49 319 1.0 3.0 0.00 0.01 0.00 81 1016.7
20260508055658 49 271 1.0 4.0 0.00 0.01 0.00 82 1016.7
20260508055158 48 280 1.0 3.0 0.00 0.01 0.00 82 1016.7
20260508054658 48 334 1.0 4.0 0.00 0.01 0.00 83 1016.3
20260508054207 48 310 2.0 4.0 0.00 0.01 0.00 83 1016.3
20260508053658 48 305 1.0 5.0 0.00 0.01 0.00 83 1016.3
20260508053204 48 282 2.0 5.0 0.00 0.01 0.00 83 1016.3
20260508052701 48 308 1.0 5.0 0.00 0.01 0.00 83 1016.3
20260508052207 48 315 3.0 5.0 0.00 0.01 0.00 83 1016.3
20260508051658 48 315 2.0 5.0 0.00 0.01 0.00 83 1016.3
20260508051201 48 311 1.0 4.0 0.00 0.01 0.00 83 1016.3
20260508050658 48 313 1.0 4.0 0.00 0.01 0.00 83 1016.3
20260508050201 48 321 1.0 3.0 0.00 0.01 0.00 84 1016.3
20260508045701 48 275 1.0 3.0 0.00 0.01 0.00 84 1016.0
20260508045158 48 337 1.0 3.0 0.00 0.01 0.00 84 1016.0
20260508044707 48 320 2.0 4.0 0.00 0.01 0.00 84 1016.0
20260508044158 48 271 1.0 4.0 0.00 0.01 0.00 84 1016.0
20260508043704 48 286 1.0 3.0 0.00 0.01 0.00 84 1016.0
20260508043204 48 299 1.0 4.0 0.00 0.01 0.00 84 1016.0
20260508042701 48 268 1.0 4.0 0.00 0.01 0.00 84 1016.0
20260508042201 48 313 1.0 3.0 0.00 0.01 0.00 84 1016.0
20260508041658 48 290 1.0 3.0 0.00 0.01 0.00 84 1016.0
20260508041207 48 292 1.0 3.0 0.00 0.01 0.00 84 1016.0
20260508040658 48 307 1.0 3.0 0.00 0.01 0.00 84 1016.0
20260508040204 48 316 0.0 2.0 0.00 0.01 0.00 84 1015.6
20260508035658 48 321 0.0 2.0 0.00 0.01 0.00 84 1015.6
20260508035201 48 282 0.0 2.0 0.00 0.01 0.00 85 1016.0
20260508034658 48 243 1.0 2.0 0.00 0.01 0.00 85 1015.6
20260508034158 48 284 1.0 2.0 0.00 0.01 0.00 85 1015.6
20260508033701 48 311 0.0 3.0 0.00 0.01 0.00 84 1015.6
20260508033201 48 311 2.0 3.0 0.00 0.01 0.00 84 1015.6
20260508032701 48 304 1.0 3.0 0.00 0.01 0.00 85 1015.6
20260508032201 48 299 1.0 3.0 0.00 0.01 0.00 85 1015.6
20260508031704 48 283 1.0 3.0 0.00 0.01 0.00 85 1015.6
20260508031158 48 312 1.0 2.0 0.00 0.01 0.00 85 1015.6
20260508030704 48 308 1.0 2.0 0.00 0.01 0.00 85 1015.6
20260508030204 48 271 0.0 3.0 0.00 0.01 0.00 85 1015.6
20260508025701 48 331 1.0 4.0 0.00 0.01 0.00 85 1015.6
20260508025158 48 323 1.0 3.0 0.00 0.01 0.00 85 1015.6
20260508024701 48 306 1.0 3.0 0.00 0.01 0.00 86 1015.6
20260508024158 48 281 0.0 3.0 0.00 0.01 0.00 86 1015.6
20260508023704 48 319 2.0 4.0 0.00 0.01 0.00 86 1015.6
20260508023158 48 313 1.0 3.0 0.00 0.01 0.00 86 1015.6
20260508022658 48 306 1.0 3.0 0.00 0.01 0.00 86 1015.6
20260508022201 48 289 1.0 3.0 0.00 0.01 0.00 86 1015.6
20260508021701 48 296 0.0 3.0 0.00 0.01 0.00 86 1015.6
20260508021158 48 298 1.0 3.0 0.00 0.01 0.00 86 1015.6
20260508020704 48 289 1.0 4.0 0.00 0.01 0.00 86 1015.6
20260508020158 48 311 1.0 4.0 0.00 0.01 0.00 86 1015.6
20260508015707 48 285 0.0 2.0 0.00 0.01 0.00 86 1015.6
20260508015201 48 303 1.0 2.0 0.00 0.01 0.00 86 1015.6
20260508014658 48 327 1.0 3.0 0.00 0.01 0.00 86 1015.6
20260508014158 48 321 1.0 3.0 0.00 0.01 0.00 86 1015.6
20260508013658 48 286 0.0 3.0 0.00 0.01 0.00 86 1015.6
20260508013204 48 325 1.0 3.0 0.00 0.01 0.00 85 1016.0
20260508012701 48 309 1.0 4.0 0.00 0.01 0.00 85 1015.6
20260508012201 48 306 1.0 3.0 0.00 0.01 0.00 85 1015.6
20260508011658 48 294 0.0 1.0 0.00 0.01 0.00 85 1015.6
20260508011201 48 316 0.0 2.0 0.00 0.01 0.00 85 1015.6
20260508010704 49 303 1.0 2.0 0.00 0.01 0.00 85 1015.6
20260508010158 48 315 0.0 2.0 0.00 0.01 0.00 85 1016.0
20260508005701 49 313 0.0 2.0 0.00 0.01 0.00 86 1016.0
20260508005201 49 306 1.0 4.0 0.00 0.01 0.00 86 1016.0
20260508004658 49 283 1.0 3.0 0.00 0.01 0.00 85 1016.0
20260508004158 49 319 1.0 3.0 0.00 0.01 0.00 85 1015.6
20260508003704 49 321 0.0 2.0 0.00 0.01 0.00 85 1016.0
20260508003204 49 302 0.0 1.0 0.00 0.01 0.00 85 1016.0
20260508002658 49 230 0.0 1.0 0.00 0.01 0.00 85 1016.0
20260508002201 48 321 0.0 2.0 0.00 0.02 0.00 85 1016.0
20260508001658 49 342 1.0 2.0 0.00 0.02 0.00 84 1016.0
20260508001158 49 294 0.0 1.0 0.00 0.02 0.00 85 1016.0
20260508000701 49 273 0.0 2.0 0.00 0.02 0.00 85 1016.0
20260508000205 49 261 0.0 1.0 0.00 0.02 0.00 85 1016.0
20260507235704 48 262 0.0 2.0 0.00 0.02 0.00 85 1016.0
20260507235201 48 307 1.0 2.0 0.00 0.03 0.00 85 1016.0
20260507234701 48 306 0.0 2.0 0.00 0.03 0.00 85 1016.0
20260507234158 48 300 0.0 2.0 0.00 0.03 0.00 85 1016.0
20260507233658 48 300 0.0 3.0 0.00 0.03 0.00 85 1016.0
20260507233158 48 315 0.0 3.0 0.00 0.03 0.00 85 1016.0
20260507232701 48 261 2.0 3.0 0.00 0.03 0.00 85 1016.0
20260507232158 48 267 1.0 3.0 0.00 0.03 0.00 85 1016.0
20260507231658 48 292 1.0 2.0 0.00 0.03 0.00 85 1016.0
20260507231158 48 325 0.0 2.0 0.00 0.03 0.00 86 1016.0
20260507230701 48 312 1.0 2.0 0.00 0.03 0.00 86 1016.0
20260507230204 48 278 0.0 3.0 0.00 0.03 0.00 86 1016.0
20260507225707 48 319 1.0 3.0 0.00 0.03 0.00 86 1016.0
20260507225158 48 285 0.0 2.0 0.00 0.03 0.00 86 1016.0
20260507224658 48 319 1.0 3.0 0.00 0.03 0.00 86 1016.0
20260507224201 48 319 1.0 3.0 0.00 0.03 0.00 86 1016.0
20260507223701 48 324 1.0 4.0 0.00 0.03 0.00 86 1016.0
20260507223158 48 325 2.0 4.0 0.00 0.03 0.00 86 1016.0
20260507222658 48 307 1.0 4.0 0.00 0.03 0.00 86 1016.0
20260507222201 48 308 2.0 4.0 0.00 0.03 0.00 86 1016.0
20260507221658 48 307 1.0 3.0 0.00 0.03 0.00 87 1016.0
20260507221201 48 236 0.0 2.0 0.00 0.03 0.00 87 1016.0
20260507220701 48 281 0.0 2.0 0.00 0.03 0.00 87 1016.0
20260507220207 48 325 1.0 2.0 0.00 0.03 0.00 87 1016.0
20260507215701 48 281 0.0 4.0 0.00 0.03 0.00 88 1016.0